Regional Weather Roundup
Issued by NWS Wilmington, NC

Home | Current Version | Previous Version | Text Only | Print | Product List | Glossary On
Versions: 1 2 3 4 5 6 7 8 9 10 11 12 13 14 15 16 17 18 19 20 21 22 23 24 25 26 27
000
ASUS42 KILM 211912
RWRILM
RWRILM
REGIONAL HOURLY WEATHER ROUNDUP
NATIONAL WEATHER SERVICE WILMINGTON NC
200 PM EST TUE FEB 21 2017

NOTE: "FAIR" INDICATES FEW OR NO CLOUDS BELOW 12,000 FEET WITH NO
SIGNIFICANT WEATHER AND/OR OBSTRUCTIONS TO VISIBILITY.

...............WFO WILMINGTON COUNTY WARNING AREA...............

......COASTAL NC AND SC COUNTIES......

CITY           SKY/WX    TMP DP  RH WIND       PRES   REMARKS
WILMINGTON     CLOUDY    65  51  60 E9        30.16F
N MYRTLE BEACH CLOUDY    66  48  52 E8        30.14F
MYRTLE BEACH   SUNNY     63  52  67 E13       30.15F

......INLAND NC AND SC COUNTIES.......

CITY           SKY/WX    TMP DP  RH WIND       PRES   REMARKS
LUMBERTON      LGT RAIN  67  43  41 E6        30.14F
ELIZABETHTOWN  MOSUNNY   68  39  34 E5        30.16F
WHITEVILLE     CLOUDY    69  42  38 NE8       30.13F
FLORENCE       PTSUNNY   69  42  37 SE12      30.13F
DARLINGTON     PTSUNNY   68  45  43 SE9       30.14F
KINGSTREE      CLOUDY    66  50  55 E8        30.12F
HARTSVILLE     PTSUNNY   66  45  45 E8        30.12F
BENNETTSVILLE  NOT AVBL
CONWAY         PTSUNNY   68  45  42 E6        30.14F
GEORGETOWN     FAIR      63  52  67 E8        30.14F
MARION         FAIR      68  45  42 S3        30.15S

....................REST OF NORTH CAROLINA......................

.........EASTERN NC.........

CITY           SKY/WX    TMP DP  RH WIND       PRES   REMARKS
CAPE HATTERAS  CLOUDY    65  52  62 VRB6      30.20F
JACKSONVILLE   MOSUNNY   67  50  54 SE9       30.17F
MOREHEAD CITY  MOSUNNY   67  51  56 NE9       30.18
KENANSVILLE    NOT AVBL
NEW BERN       CLOUDY    65  49  56 SE9       30.20F
ELIZABETH CITY PTSUNNY   57  40  52 E12       30.24F

.........CENTRAL NC.........

CITY           SKY/WX    TMP DP  RH WIND       PRES   REMARKS
RALEIGH DURHAM CLOUDY    65  34  31 VRB3      30.17F
ROCKY MOUNT    PTSUNNY   62  40  44 CALM      30.19F
ROANOKE RAPIDS NOT AVBL
FAYETTEVILLE   CLOUDY    67  40  37 E7        30.15F
HOFFMAN        PTSUNNY   65  42  42 E7        30.14F

.........WESTERN NC.........

CITY           SKY/WX    TMP DP  RH WIND       PRES   REMARKS
CHARLOTTE      CLOUDY    66  41  40 SE8       30.15F
GREENSBORO     CLOUDY    61  38  42 S8        30.15F
HICKORY        NOT AVBL
BOONE          NOT AVBL
ASHEVILLE      NOT AVBL

.....................REST OF SOUTH CAROLINA.....................

.........EASTERN SC.........

CITY           SKY/WX    TMP DP  RH WIND       PRES   REMARKS
CHARLESTON     CLOUDY    69  56  62 E17       30.10F
BEAUFORT MCAS  CLOUDY    70  61  73 E16       30.07F
HILTON HEAD    PTSUNNY   70  61  73 E7        30.08F

.........CENTRAL SC.........

CITY           SKY/WX    TMP DP  RH WIND       PRES   REMARKS
COLUMBIA       CLOUDY    69  50  50 SE9       30.10F
ORANGEBURG     CLOUDY    68  54  60 E7        30.10F
SUMTER SHAW    PTSUNNY   68  50  52 SE10      30.09F

.........WESTERN SC.........

CITY           SKY/WX    TMP DP  RH WIND       PRES   REMARKS
GREENVILLE     NOT AVBL
ROCK HILL      CLOUDY    65  41  41 S6        30.13F
ANDERSON       PTSUNNY   67  52  58 SE7       30.08F
CLEMSON        NOT AVBL
GREENWOOD      PTSUNNY   67  51  56 E6        30.11F


...................COASTAL AND OFFSHORE REPORTS..................

................LOCAL PIERS AND NC RESERVE................


STATION/POSITION TIME  SKY/WX   TEMP    WIND        PRES    VSBY
                                AIR SEA DIR/SP/G
                 (UTC)          (F)     (DEG/KT/KT) (MB)    (MI)
JOHNY MRCER PIER 1842            57 59   30/  8/ 10 1020.7F
NC RESRV MASNBRO 1745            59      70/  8     1022.0
OCEAN CREST PIER NOT AVBL
SPRINGMAID  PIER 1848                               1020.1F


................COASTAL AND OFFSHORE BUOYS................


STATION/POSITION TIME  SKY/WX   TEMP    WIND        PRES    VSBY
                                AIR SEA DIR/SP/G
                 (UTC)          (F)     (DEG/KT/KT) (MB)    (MI)
DIMNDSHOAL 41025 1850            64 75   90/  8/ 12 1022.2F
WVE H/P(F/S)=  5/ 9 SWL H/P/D(F/S/D)=  5/ 40/ 9

CAPE LOOKOUT     1900            58      30/ 13/ 15 1021.7F
ONSLOW BAY 41036 NOT AVBL
ONSLOW BAY 41064 1808            60      50/ 14/ 17 1022.0F
ONSLOW BAY 41159 1843               68                N/A
WVE H/P(F/S)=  4/10

MASNBO INL 41110 1859               56                N/A
WVE H/P(F/S)=  3/ 7

WILM HARBR 41108 1847               57                N/A
WVE H/P(F/S)=  3/ 6

27SE WRITB 41037 1808            60 63   50/ 14/ 17 1021.1F
FRYING PAN 41013 1900            63 68   30/ 16/ 19 1020.4
SUNST NRSH 41024 1808            58 57  100/  8/ 12 1021.4F
CAPRS NRSH 41029 1808            60 59   60/ 12/ 17 1019.9F
EDISTO     41004 1850            70 69  100/ 17/ 17 1018.3F
WVE H/P(F/S)=  4/ 6



..........OFFSHORE BUOYS BEYOND 100 NM OFFSHORE...........
.....IN A TRIANGLE---HAT TO BERMUDA TO BAHAMAS TO HAT.....


STATION/POSITION TIME  SKY/WX   TEMP    WIND        PRES    VSBY
                                AIR SEA DIR/SP/G
                 (UTC)          (F)     (DEG/KT/KT) (MB)    (MI)
150E HAT   41001 NOT AVBL
W BERMUDA  41048 1850            60 69   20/ 19/ 23 1018.2F
WVE H/P(F/S)=  8/ 8 SWL H/P/D(F/S/D)=  3/180/17

ATLANTIC S 41049 1850            70 72  360/ 21/ 25 1009.4F
WVE H/P(F/S)=  6/ 5 SWL H/P/D(F/S/D)=  2/350/13

E BAHAMAS  41046 1900            76 78   30/ 14/ 16 1013.6
NE BAHAMAS 41047 1900            70 74   30/ 19/ 23 1015.0
120E CANVRL41010 NOT AVBL

END




USA.gov is the U.S. government's official web portal to all federal, state and local government web resources and services.